[[{"header":{"parameterUnit":"m.s-1","parameterCategory":1,"la1":30.2991,"la2":30.254,"lo1":-89.0895,"lo2":-89.0444,"dy":0.0017,"dx":0.0017,"nx":28,"ny":28,"refTime":"2024-09-27T09:00:00:Z","depth":0,"parameterNumber":2,"parameterNumberName":"U-component_of_WINDS"},"data":[0,0,0,0,0,0,0,0,0,0,0,0,0,0,0,0,0,0,0,0,0,0,0,0,0,0,0,0,0,0,0,0,0,0,0,0,0,0,0,0,0,0,0,0,0,0,0,0,0,0,0,0,0,0,0,0,0,0,5.3766,5.3767,0,5.3909,5.3911,5.3912,5.3865,5.3862,5.3858,5.3856,5.4001,5.4008,5.4015,0,0,0,0,0,0,0,0,0,0,0,0,0,5.345,5.3456,5.3766,5.3768,5.3769,5.3909,5.3911,5.3913,5.3865,5.3861,5.3858,5.3854,5.3999,5.4007,5.4015,0,0,0,0,0,0,0,0,0,0,0,0,0,5.359,5.3458,5.3765,5.3762,5.3764,5.3909,5.3911,5.3913,5.3866,5.3861,5.3857,5.3852,5.3996,5.4006,5.4016,5.4172,0,0,5.4047,5.4052,0,0,0,0,0,0,0,0,5.3582,5.3601,5.3761,5.3763,5.3764,5.3864,5.3853,5.4,5.3867,5.3827,5.3855,5.385,5.3959,5.3972,5.4009,5.4179,5.4186,5.4048,5.4054,5.4059,5.4062,0,0,0,0,0,0,0,5.3572,5.3595,5.3822,5.3763,5.3766,5.3754,5.3768,5.3881,5.3918,5.383,5.3827,5.3845,5.3959,5.4,5.4012,5.4188,5.4048,5.4057,5.4063,5.4067,5.4493,5.4498,0,0,0,0,0,0,5.3562,5.3587,5.3818,5.3827,5.366,5.3763,5.378,5.3837,5.3916,5.3924,5.3849,5.3842,5.3985,5.4001,5.4017,5.4205,5.4059,5.4068,5.4074,5.4488,5.4494,5.45,0,0,0,0,0,0,5.3555,5.3583,5.3812,5.3706,5.3734,5.3774,5.3838,5.3842,5.3882,5.393,5.3936,5.3883,5.3982,5.4003,5.4134,5.421,5.4073,5.4082,5.4482,5.449,5.4497,5.4582,0,0,0,0,0,0,5.3546,5.3581,5.364,5.3708,5.374,5.3927,5.3843,5.3848,5.39,5.3893,5.3964,5.3971,5.398,5.4119,5.4145,5.4221,5.409,5.4475,5.4485,5.4494,5.4573,5.4592,5.4608,0,0,0,0,0,5.3535,5.3659,5.3644,5.3672,5.3816,5.3931,5.395,5.3957,5.3907,5.3967,5.3998,5.3969,5.4198,5.4133,5.4161,5.4242,5.447,5.4482,5.4494,5.4565,5.4588,5.4608,0,0,0,0,0,0,5.3598,5.3667,5.3652,5.3801,5.3861,5.3923,5.3999,5.3982,5.4057,5.4047,5.4052,5.4069,5.4204,5.4236,5.4163,5.4397,5.4326,5.4344,5.4371,5.4394,5.4411,5.44,5.4099,0,0,0,0,0,5.363,5.3718,5.3773,5.3899,5.3931,5.396,5.4011,5.4011,5.4073,5.4098,5.4138,5.42,5.4285,5.4341,5.4423,5.4578,5.4592,5.4647,5.4665,5.4679,5.4694,5.4779,5.4803,5.4538,5.4538,5.4538,0,0,5.3695,5.3744,5.3799,5.3913,5.396,5.4051,5.3982,5.4081,5.4148,5.4113,5.4239,5.4272,5.434,5.4484,5.4549,5.4515,5.4771,5.4694,5.4705,5.4713,5.4793,5.4818,5.484,5.4546,5.4545,5.4544,0,0,5.3861,5.3907,5.4017,5.4065,5.4137,5.4156,5.4182,5.4248,5.4268,5.4395,5.4371,5.4451,5.4598,5.4648,5.4693,5.4879,5.4855,5.4905,5.4998,5.508,5.5101,5.5119,5.5185,5.5208,5.492,5.4921,5.4921,0,5.3933,5.4069,5.4075,5.4177,5.4228,5.4201,5.4312,5.4359,5.4454,5.4489,5.445,5.4634,5.4679,5.4834,5.4879,5.4917,5.4947,5.4897,5.5097,5.5116,5.5133,5.5196,5.5221,5.4926,5.4925,5.4925,5.4924,0,5.4154,5.4249,5.433,5.4422,5.4482,5.4588,5.461,5.467,5.4666,5.4689,5.4819,5.4872,5.4963,5.5,5.4997,5.5155,5.5132,5.5095,5.5024,5.5164,5.5223,5.5247,5.4934,5.4932,5.493,5.4929,0,0,5.4363,5.4458,5.4487,5.4529,5.4606,5.468,5.4785,5.4874,5.4926,5.4992,5.508,5.5206,5.5172,5.5223,5.5225,5.5298,5.5441,5.5252,5.5254,5.5285,5.5618,5.5645,5.5672,5.5426,5.5431,5.5435,5.5612,0,5.4534,5.4718,5.4727,5.4895,5.4983,5.4959,5.505,5.5108,5.5133,5.5211,5.5238,5.5327,5.5276,5.5307,5.5377,5.5409,5.5508,5.5396,5.5507,5.5511,5.549,5.5703,5.5731,5.5896,5.5635,5.5639,5.5642,0,5.4758,5.4832,5.5009,5.5074,5.5111,5.5193,5.5276,5.5351,5.5416,5.5429,5.5486,5.5478,5.5585,5.5512,5.5659,5.5583,5.5629,5.5652,5.5658,5.5668,5.5584,5.5718,5.5949,5.5973,5.5679,5.5676,5.5673,0,5.4892,5.5035,5.5159,5.5196,5.5275,5.5333,5.5369,5.5429,5.5483,5.5556,5.5591,5.5675,5.5721,5.5787,5.5802,5.5747,5.5949,5.5877,5.5962,5.5962,5.6005,5.6002,5.6246,5.6037,5.6037,5.6036,5.6036,0,5.5082,5.519,5.522,5.5296,5.5418,5.5427,5.5547,5.5578,5.5632,5.5714,5.5699,5.5776,5.5792,5.5872,5.5885,5.6005,5.6026,5.6039,5.6041,5.604,5.6038,5.6069,5.6058,5.6043,5.6041,5.604,5.6039,0,5.525,5.5275,5.5408,5.5473,5.5492,5.5578,5.5633,5.5706,5.573,5.5834,5.5858,5.5895,5.5989,5.6011,5.6122,5.6131,5.6273,5.6264,5.6251,5.625,5.6334,5.6326,5.6606,5.6643,5.6411,5.6413,5.6415,0,5.5369,5.5452,5.5526,5.558,5.5619,5.5706,5.576,5.5773,5.5831,5.5911,5.5975,5.6067,5.6141,5.6292,5.6329,5.6414,5.6407,5.6499,5.6419,5.6416,5.6407,5.6401,5.6409,5.6514,5.6516,5.6518,5.652,0,5.5578,5.5586,5.5665,5.575,5.5816,5.5883,5.5947,5.5992,5.6014,5.6079,5.6175,5.6233,5.6347,5.6439,5.6525,5.6561,5.6545,5.6545,5.6569,5.6568,5.6557,5.6564,5.6291,5.6538,5.6536,5.6535,5.6534,5.6533,5.5725,5.5797,5.5861,5.595,5.6,5.606,5.6132,5.6164,5.6245,5.6339,5.6342,5.6446,5.6509,5.6623,5.6665,5.6746,5.6718,5.6753,5.6762,5.677,5.6777,5.6545,5.6762,5.6762,5.6761,5.6761,5.676,0,5.5931,5.5971,5.6053,5.6143,5.6214,5.6193,5.6263,5.6323,5.6415,5.6475,5.6549,5.6659,5.6748,5.6792,5.688,5.6937,5.6932,5.696,5.6955,5.6964,5.6798,5.6768,5.6963,5.6963,5.6963,5.6963,5.6963,5.6963,5.6047,5.6169,5.6185,5.6331,5.637,5.6472,5.6514,5.6569,5.6617,5.6741,5.6815,5.6844,5.6898,5.699,5.707,5.7081,5.7113,5.7145,5.7152,5.6996,5.6975,5.6956,5.6927,5.7153,5.7153,5.7311,5.7312,5.7313]},{"header":{"parameterUnit":"m.s-1","parameterCategory":1,"la1":30.2991,"la2":30.254,"lo1":-89.0895,"lo2":-89.0444,"dy":0.0017,"dx":0.0017,"nx":28,"ny":28,"refTime":"2024-09-27T09:00:00:Z","depth":0,"parameterNumber":3,"parameterNumberName":"V-component_of_WINDS"},"data":[0,0,0,0,0,0,0,0,0,0,0,0,0,0,0,0,0,0,0,0,0,0,0,0,0,0,0,0,0,0,0,0,0,0,0,0,0,0,0,0,0,0,0,0,0,0,0,0,0,0,0,0,0,0,0,0,0,0,-3.8933,-3.8935,0,-3.9136,-3.9139,-3.9141,-3.9136,-3.9133,-3.913,-3.9127,-3.9338,-3.9346,-3.9354,0,0,0,0,0,0,0,0,0,0,0,0,0,-3.8543,-3.855,-3.8933,-3.8935,-3.8938,-3.9136,-3.9139,-3.9141,-3.9136,-3.9133,-3.9129,-3.9126,-3.9335,-3.9345,-3.9355,0,0,0,0,0,0,0,0,0,0,0,0,0,-3.8726,-3.8553,-3.8932,-3.8959,-3.8963,-3.9135,-3.9139,-3.9142,-3.9137,-3.9133,-3.9128,-3.9125,-3.9332,-3.9344,-3.9356,-3.9516,0,0,-3.9394,-3.9399,0,0,0,0,0,0,0,0,-3.8716,-3.874,-3.8952,-3.8957,-3.8963,-3.9106,-3.9078,-3.9268,-3.9138,-3.9071,-3.9127,-3.9123,-3.9264,-3.9282,-3.9329,-3.9526,-3.9535,-3.9395,-3.9402,-3.9408,-3.9411,0,0,0,0,0,0,0,-3.8703,-3.8732,-3.9013,-3.8956,-3.8962,-3.8962,-3.8983,-3.9114,-3.9189,-3.9077,-3.9077,-3.9101,-3.9266,-3.9318,-3.9334,-3.9538,-3.9395,-3.9405,-3.9413,-3.9418,-3.9877,-3.9882,0,0,0,0,0,0,-3.8684,-3.8721,-3.9007,-3.9019,-3.8826,-3.8972,-3.8996,-3.9064,-3.9187,-3.9202,-3.9104,-3.91,-3.9299,-3.932,-3.9342,-3.9538,-3.9408,-3.9419,-3.9426,-3.9872,-3.9878,-3.9883,0,0,0,0,0,0,-3.8676,-3.871,-3.8999,-3.887,-3.8907,-3.8983,-3.906,-3.9071,-3.9122,-3.9208,-3.9222,-3.9142,-3.9296,-3.9324,-3.9473,-3.9545,-3.9425,-3.9436,-3.9867,-3.9874,-3.9881,-3.9931,0,0,0,0,0,0,-3.8665,-3.8707,-3.8767,-3.8872,-3.8914,-3.9125,-3.9065,-3.9078,-3.9143,-3.9139,-3.9248,-3.9262,-3.9295,-3.9454,-3.9485,-3.956,-3.9445,-3.986,-3.987,-3.9878,-3.9923,-3.9939,-3.9952,0,0,0,0,0,-3.8651,-3.8773,-3.877,-3.8805,-3.8991,-3.913,-3.9154,-3.9189,-3.9148,-3.9211,-3.9266,-3.9258,-3.9532,-3.947,-3.9504,-3.9584,-3.9856,-3.9867,-3.9878,-3.9916,-3.9936,-3.9952,0,0,0,0,0,0,-3.8676,-3.8788,-3.8785,-3.8945,-3.9028,-3.9128,-3.9208,-3.9208,-3.9305,-3.9297,-3.9338,-3.9362,-3.9511,-3.9562,-3.9491,-3.9746,-3.9689,-3.9707,-3.9707,-3.9726,-3.974,-3.9725,-3.9456,0,0,0,0,0,-3.87,-3.8802,-3.8894,-3.9027,-3.9068,-3.9131,-3.9193,-3.9213,-3.93,-3.9335,-3.9402,-3.9488,-3.9594,-3.9662,-3.9764,-3.993,-3.9955,-4.0002,-4.0017,-4.0028,-4.0044,-4.0137,-4.016,-3.9919,-3.9919,-3.9919,0,0,-3.8751,-3.8825,-3.8887,-3.9034,-3.91,-3.9206,-3.916,-3.9274,-3.9354,-3.9353,-3.9497,-3.9549,-3.9648,-3.9806,-3.9879,-3.9854,-4.0116,-4.0042,-4.0051,-4.006,-4.0151,-4.0173,-4.0194,-3.9926,-3.9925,-3.9924,0,0,-3.8899,-3.8964,-3.9082,-3.9149,-3.925,-3.9291,-3.932,-3.9421,-3.9455,-3.9601,-3.9603,-3.9698,-3.9879,-3.995,-4.0009,-4.0185,-4.0182,-4.0217,-4.0294,-4.0385,-4.0404,-4.0421,-4.0485,-4.0507,-4.0232,-4.0232,-4.0232,0,-3.895,-3.9109,-3.9143,-3.9258,-3.9323,-3.9326,-3.9447,-3.9511,-3.9641,-3.9687,-3.9655,-3.9883,-3.995,-4.0126,-4.0169,-4.0216,-4.0251,-4.0205,-4.0398,-4.0415,-4.0432,-4.0494,-4.0517,-4.0236,-4.0236,-4.0235,-4.0235,0,-3.9167,-3.9278,-3.9361,-3.9485,-3.956,-3.9677,-3.973,-3.9802,-3.9816,-3.9861,-4.001,-4.009,-4.0209,-4.0252,-4.0267,-4.0431,-4.0412,-4.0389,-4.0333,-4.0458,-4.0517,-4.054,-4.0241,-4.024,-4.0239,-4.0238,0,0,-3.9336,-3.9478,-3.9509,-3.9566,-3.9678,-3.9765,-3.9883,-3.9998,-4.006,-4.0149,-4.0251,-4.0404,-4.0384,-4.0452,-4.0475,-4.0554,-4.069,-4.0522,-4.0525,-4.0552,-4.0878,-4.0895,-4.0922,-4.0688,-4.0693,-4.0696,-4.087,0,-3.9497,-3.9705,-3.974,-3.9923,-4.0027,-4.0032,-4.0135,-4.0216,-4.0261,-4.0356,-4.0407,-4.0515,-4.048,-4.0521,-4.06,-4.0657,-4.0756,-4.0645,-4.0784,-4.0789,-4.076,-4.0952,-4.0971,-4.113,-4.0893,-4.0897,-4.09,0,-3.9711,-3.9806,-4.0,-4.0099,-4.0144,-4.0236,-4.0345,-4.0436,-4.0528,-4.0556,-4.0632,-4.0646,-4.077,-4.0708,-4.0881,-4.0804,-4.0864,-4.0901,-4.0908,-4.0923,-4.0852,-4.0974,-4.1182,-4.1206,-4.0936,-4.0933,-4.093,0,-3.9817,-3.9993,-4.0132,-4.018,-4.0299,-4.0364,-4.0417,-4.0505,-4.0573,-4.0669,-4.0714,-4.0824,-4.0884,-4.0969,-4.1013,-4.0964,-4.1184,-4.1125,-4.1211,-4.121,-4.1258,-4.1255,-4.148,-4.1294,-4.1294,-4.1293,-4.1293,0,-3.9993,-4.0112,-4.0181,-4.0267,-4.04,-4.044,-4.0571,-4.0623,-4.0701,-4.0798,-4.081,-4.09,-4.0952,-4.1051,-4.1086,-4.1225,-4.1252,-4.1279,-4.1287,-4.1279,-4.1275,-4.1319,-4.1309,-4.13,-4.1298,-4.1297,-4.1296,0,-4.0134,-4.0185,-4.0337,-4.0437,-4.0465,-4.056,-4.0646,-4.073,-4.0775,-4.0898,-4.0929,-4.1,-4.1117,-4.1169,-4.1314,-4.1337,-4.1497,-4.1496,-4.1465,-4.1469,-4.1553,-4.1545,-4.1815,-4.1853,-4.164,-4.1642,-4.1644,0,-4.0243,-4.0335,-4.0445,-4.051,-4.0564,-4.0669,-4.0739,-4.0781,-4.0853,-4.0966,-4.1037,-4.1154,-4.1251,-4.1438,-4.1504,-4.1615,-4.1618,-4.1705,-4.1635,-4.1624,-4.1621,-4.1616,-4.1626,-4.1718,-4.172,-4.1722,-4.1723,0,-4.0433,-4.0454,-4.0552,-4.0661,-4.0743,-4.0831,-4.0917,-4.097,-4.1026,-4.1107,-4.1226,-4.1301,-4.1449,-4.1566,-4.1681,-4.1737,-4.1741,-4.1745,-4.1771,-4.1764,-4.1743,-4.1757,-4.1502,-4.1739,-4.1737,-4.1736,-4.1735,-4.1734,-4.0563,-4.0645,-4.0735,-4.0845,-4.0914,-4.0994,-4.1079,-4.1134,-4.1235,-4.1358,-4.1377,-4.1505,-4.1597,-4.1752,-4.1813,-4.1915,-4.1894,-4.1931,-4.1941,-4.195,-4.1956,-4.1726,-4.1936,-4.1935,-4.1935,-4.1935,-4.1934,0,-4.0754,-4.0813,-4.0913,-4.1033,-4.112,-4.1114,-4.1209,-4.1283,-4.1396,-4.148,-4.1575,-4.1713,-4.1827,-4.1902,-4.2017,-4.2085,-4.209,-4.2114,-4.211,-4.2124,-4.1967,-4.1934,-4.2108,-4.2108,-4.2108,-4.2108,-4.2108,-4.2108,-4.0864,-4.1003,-4.1035,-4.1209,-4.1267,-4.1392,-4.1447,-4.1521,-4.1589,-4.1743,-4.1838,-4.1885,-4.1967,-4.2088,-4.2193,-4.2213,-4.2255,-4.2281,-4.23,-4.2152,-4.2134,-4.2117,-4.2086,-4.229,-4.229,-4.2448,-4.2449,-4.245]}]]